Weather History for Fryeburg, ME

Change the Weather History Date:

Thursday, March 15, 2012

  Actual Average Record
Temperature  
Mean Temperature 36 °F -  
Max Temperature 45 °F 36 °F 54 °F (2007)
Min Temperature 27 °F 16 °F 10 °F (2013)
Degree Days  
Heating Degree Days 29    
Moisture  
Dew Point 28 °F    
Average Humidity 79    
Maximum Humidity 96    
Minimum Humidity 55    
Precipitation  
Precipitation 0.00 in - - ()
Sea Level Pressure  
Sea Level Pressure 30.35 in    
Wind  
Wind Speed 2 mph (NNE)    
Max Wind Speed 8 mph    
Max Gust Speed -    
Visibility 10 miles    
Events Snow    
Averages and records for this station are not official NWS values.
T = Trace of Precipitation, MM = Missing Value Source: NWS Daily Summary

Daily Weather History Graph

Daily Weather History Graph

Search for Another Location

Airport:

Trip Planner

Search our weather history database for the weather conditions in past years. The results will help you decide how hot, cold, wet, or windy it might be!

Date:

Astronomy

Mar. 15, 2012 Rise Set
Actual Time 6:55 AM EDT 6:50 PM EDT
Civil Twilight 6:26 AM EDT 7:19 PM EDT
Nautical Twilight 5:52 AM EDT 7:52 PM EDT
Astronomical Twilight 5:18 AM EDT 8:27 PM EDT
Moon 2:32 AM EDT (3/15) 11:52 AM EDT (3/15)
Length of Visible Light 12h 52m
Length of Day
11h 55m
Last Quarter, 43% of the Moon is Illuminated
Mar 15
Last Quarter
Mar 22
New
Mar 30
First Quarter
Apr 6
Full
Apr 13
Last Quarter

Hourly Weather History & Observations

Time (EDT) Temp. Windchill Dew Point Humidity Pressure Visibility Wind Dir Wind Speed Gust Speed Precip Events Conditions
12:14 AM 32.0 °F 28.7 °F 30.2 °F 93% 30.28 in 9.0 mi NE 3.5 mph - 0.00 in Snow Light Snow
12:54 AM 32.0 °F - 30.9 °F 96% 30.31 in 10.0 mi Calm Calm - 0.00 in   Overcast
1:54 AM 32.0 °F - 28.9 °F 88% 30.32 in 10.0 mi Calm Calm - N/A   Overcast
2:54 AM 30.9 °F 27.5 °F 28.0 °F 89% 30.32 in 10.0 mi NNE 3.5 mph - N/A   Overcast
3:54 AM 30.9 °F 27.5 °F 28.0 °F 89% 30.33 in 10.0 mi NE 3.5 mph - N/A   Overcast
4:54 AM 30.9 °F 27.5 °F 28.0 °F 89% 30.35 in 10.0 mi Variable 3.5 mph - N/A   Overcast
5:54 AM 30.9 °F 26.2 °F 27.0 °F 85% 30.36 in 10.0 mi NNE 4.6 mph - N/A   Overcast
6:54 AM 30.9 °F 27.5 °F 27.0 °F 85% 30.38 in 10.0 mi NNE 3.5 mph - N/A   Overcast
7:54 AM 30.9 °F 27.5 °F 26.1 °F 82% 30.40 in 10.0 mi NNE 3.5 mph - N/A   Overcast
8:54 AM 32.0 °F 27.5 °F 26.1 °F 79% 30.40 in 10.0 mi NE 4.6 mph - N/A   Overcast
9:54 AM 33.1 °F 30.0 °F 27.0 °F 78% 30.40 in 10.0 mi Variable 3.5 mph - N/A   Overcast
10:54 AM 35.1 °F - 26.1 °F 70% 30.40 in 10.0 mi Calm Calm - N/A   Overcast
11:54 AM 37.9 °F - 28.0 °F 68% 30.38 in 10.0 mi Calm Calm - N/A   Overcast
12:54 PM 39.9 °F - 28.0 °F 63% 30.36 in 10.0 mi Calm Calm - N/A   Overcast
1:54 PM 42.1 °F 39.2 °F 28.9 °F 60% 30.34 in 10.0 mi Variable 4.6 mph - N/A   Overcast
2:54 PM 42.1 °F - 28.9 °F 60% 30.33 in 10.0 mi Calm Calm - N/A   Overcast
3:54 PM 43.0 °F - 28.9 °F 58% 30.33 in 10.0 mi Calm Calm - N/A   Overcast
4:54 PM 44.1 °F 42.5 °F 28.9 °F 55% 30.32 in 10.0 mi Variable 3.5 mph - N/A   Clear
5:54 PM 42.1 °F 37.1 °F 30.0 °F 62% 30.33 in 10.0 mi North 8.1 mph - N/A   Clear
6:54 PM 37.9 °F 35.5 °F 30.0 °F 73% 30.35 in 10.0 mi North 3.5 mph - N/A   Clear
7:54 PM 30.9 °F - 27.0 °F 85% 30.37 in 10.0 mi Calm Calm - N/A   Clear
8:54 PM 30.9 °F - 28.0 °F 89% 30.37 in 10.0 mi Calm Calm - N/A   Clear
9:54 PM 30.0 °F - 27.0 °F 88% 30.37 in 10.0 mi Calm Calm - N/A   Partly Cloudy
10:54 PM 28.9 °F - 26.1 °F 89% 30.37 in 10.0 mi Calm Calm - N/A   Clear
11:54 PM 27.0 °F - 25.0 °F 92% 30.36 in 10.0 mi Calm Calm - N/A   Scattered Clouds